Moose Lake, MN

9:51 PM CDT on July 27, 2017 (GMT -0500)
Moose Lake-Carlton County

Weather History for KMZH - May, 2009

Change the Weather History Date:

Friday, May 29, 2009

  Actual Average Record
Temperature  
Mean Temperature 54 °F -  
Max Temperature 68 °F 71 °F 89 °F (1969)
Min Temperature 41 °F 42 °F 25 °F (1952)
Degree Days  
Heating Degree Days 10    
Growing Degree Days 4 (Base 50)    
Moisture  
Dew Point 36 °F    
Average Humidity 52    
Maximum Humidity 87    
Minimum Humidity 27    
Precipitation  
Precipitation 0.00 in - - ()
Sea Level Pressure  
Sea Level Pressure 29.93 in    
Wind  
Wind Speed 6 mph (NW)    
Max Wind Speed 13 mph    
Max Gust Speed 20 mph    
Visibility 10 miles    
Events Rain , Thunderstorm    
Averages and records for this station are not official NWS values.
T = Trace of Precipitation, MM = Missing Value Source: NWS Daily Summary

Daily Weather History Graph

Daily Weather History Graph

Search for Another Location

Airport or City:

Trip Planner

Search our weather history database for the weather conditions in past years. The results will help you decide how hot, cold, wet, or windy it might be!

Date:

Astronomy

May. 29, 2009 Rise Set
Actual Time 5:24 AM CDT 8:53 PM CDT
Civil Twilight 4:46 AM CDT 9:31 PM CDT
Nautical Twilight 3:57 AM CDT 10:21 PM CDT
Astronomical Twilight 2:52 AM CDT 11:26 PM CDT
Moon 11:09 AM CDT (5/29) 12:54 AM CDT (5/29)
Length of Visible Light 16h 44m
Length of Day
15h 29m
Waxing Crescent, 34% of the Moon is Illuminated
May 29
Waxing Crescent
May 30
First Quarter
Jun 7
Full
Jun 15
Last Quarter
Jun 22
New

Hourly Weather History & Observations

Time (CDT) Temp. Windchill Dew Point Humidity Pressure Visibility Wind Dir Wind Speed Gust Speed Precip Events Conditions
12:16 AM 55.4 °F - 41.0 °F 58% 29.88 in 10.0 mi NNW 8.1 mph - N/A   Clear
12:36 AM 53.6 °F - 41.0 °F 62% 29.88 in 10.0 mi NNW 5.8 mph - N/A   Clear
12:56 AM 53.6 °F - 41.0 °F 62% 29.89 in 10.0 mi NNW 4.6 mph - N/A   Clear
1:16 AM 51.8 °F - 41.0 °F 67% 29.89 in 10.0 mi NNW 4.6 mph - N/A   Scattered Clouds
1:36 AM 51.8 °F - 41.0 °F 67% 29.90 in 10.0 mi NNW 4.6 mph - N/A   Clear
1:56 AM 50.0 °F - 41.0 °F 71% 29.91 in 10.0 mi NW 4.6 mph - N/A   Scattered Clouds
2:16 AM 50.0 °F - 39.2 °F 66% 29.91 in 10.0 mi NNW 5.8 mph - N/A   Scattered Clouds
2:36 AM 50.0 °F - 39.2 °F 66% 29.91 in 10.0 mi NNW 4.6 mph - N/A   Scattered Clouds
2:56 AM 46.4 °F 44.3 °F 39.2 °F 76% 29.92 in 10.0 mi WNW 4.6 mph - N/A   Scattered Clouds
3:16 AM 46.4 °F 42.9 °F 39.2 °F 76% 29.92 in 10.0 mi NNW 6.9 mph - N/A   Scattered Clouds
3:36 AM 46.4 °F 44.3 °F 37.4 °F 71% 29.92 in 10.0 mi NW 4.6 mph - N/A   Mostly Cloudy
3:56 AM 44.6 °F 43.1 °F 39.2 °F 81% 29.93 in 10.0 mi WNW 3.5 mph - N/A   Scattered Clouds
4:16 AM 44.6 °F 41.4 °F 37.4 °F 76% 29.93 in 10.0 mi NW 5.8 mph - N/A   Scattered Clouds
4:36 AM 44.6 °F 42.2 °F 37.4 °F 76% 29.94 in 10.0 mi NW 4.6 mph - N/A   Clear
4:56 AM 41.0 °F 38.0 °F 35.6 °F 81% 29.94 in 10.0 mi WNW 4.6 mph - N/A   Scattered Clouds
5:16 AM 41.0 °F 38.0 °F 37.4 °F 87% 29.95 in 10.0 mi NW 4.6 mph - N/A   Mostly Cloudy
5:37 AM 42.8 °F 40.1 °F 37.4 °F 81% 29.96 in 10.0 mi NW 4.6 mph - N/A   Mostly Cloudy
5:56 AM 42.8 °F 40.1 °F 37.4 °F 81% 29.96 in 10.0 mi NW 4.6 mph - N/A   Scattered Clouds
6:16 AM 42.8 °F 40.1 °F 37.4 °F 81% 29.97 in 10.0 mi NNW 4.6 mph - N/A   Clear
6:36 AM 44.6 °F 41.4 °F 37.4 °F 76% 29.97 in 10.0 mi NW 5.8 mph - N/A   Clear
6:56 AM 44.6 °F 42.2 °F 35.6 °F 71% 29.98 in 10.0 mi NW 4.6 mph - N/A   Clear
7:16 AM 46.4 °F 43.5 °F 35.6 °F 66% 29.97 in 10.0 mi NNW 5.8 mph - N/A   Clear
7:36 AM 46.4 °F 44.3 °F 33.8 °F 62% 29.98 in 10.0 mi NW 4.6 mph - N/A   Clear
7:56 AM 50.0 °F - 33.8 °F 54% 29.98 in 10.0 mi NW 6.9 mph - N/A   Clear
8:16 AM 50.0 °F - 33.8 °F 54% 29.98 in 10.0 mi NNW 6.9 mph - N/A   Clear
8:36 AM 51.8 °F - 32.0 °F 47% 29.99 in 10.0 mi NNW 6.9 mph - N/A   Clear
8:56 AM 53.6 °F - 30.2 °F 41% 29.99 in 10.0 mi North 10.4 mph - N/A   Clear
9:16 AM 55.4 °F - 30.2 °F 38% 29.99 in 10.0 mi North 6.9 mph - N/A   Clear
9:36 AM 55.4 °F - 28.4 °F 36% 29.99 in 10.0 mi NNW 6.9 mph - N/A   Clear
9:56 AM 57.2 °F - 26.6 °F 31% 29.99 in 10.0 mi WNW 5.8 mph - N/A   Clear
10:16 AM 59.0 °F - 26.6 °F 29% 29.99 in 10.0 mi NW 10.4 mph - N/A   Clear
10:36 AM 59.0 °F - 26.6 °F 29% 29.98 in 10.0 mi NNW 9.2 mph - N/A   Clear
10:56 AM 60.8 °F - 26.6 °F 27% 29.98 in 10.0 mi WNW 5.8 mph - N/A   Clear
11:16 AM 60.8 °F - 28.4 °F 29% 29.98 in 10.0 mi WNW 10.4 mph - N/A   Clear
11:36 AM 62.6 °F - 30.2 °F 30% 29.97 in 10.0 mi NNW 3.5 mph - N/A   Scattered Clouds
11:56 AM 60.8 °F - 32.0 °F 34% 29.97 in 10.0 mi West 5.8 mph - N/A   Mostly Cloudy
12:16 PM 62.6 °F - 32.0 °F 32% 29.97 in 10.0 mi WNW 10.4 mph - N/A   Mostly Cloudy
12:36 PM 64.4 °F - 33.8 °F 32% 29.97 in 10.0 mi NW 9.2 mph - N/A   Scattered Clouds
12:56 PM 64.4 °F - 32.0 °F 30% 29.96 in 10.0 mi West 3.5 mph - N/A   Mostly Cloudy
1:16 PM 64.4 °F - 35.6 °F 34% 29.94 in 10.0 mi WNW 3.5 mph - N/A   Scattered Clouds
1:36 PM 64.4 °F - 33.8 °F 32% 29.93 in 10.0 mi WNW 6.9 mph - N/A   Scattered Clouds
1:56 PM 66.2 °F - 33.8 °F 30% 29.93 in 10.0 mi North 3.5 mph - N/A   Scattered Clouds
2:16 PM 66.2 °F - 35.6 °F 32% 29.93 in 10.0 mi WNW 4.6 mph - N/A   Mostly Cloudy
2:36 PM 68.0 °F - 35.6 °F 30% 29.92 in 10.0 mi West 8.1 mph 19.6 mph N/A   Scattered Clouds
2:56 PM 66.2 °F - 35.6 °F 32% 29.92 in 10.0 mi WNW 4.6 mph - N/A   Mostly Cloudy
3:16 PM 66.2 °F - 35.6 °F 32% 29.90 in 10.0 mi Calm Calm - N/A   Mostly Cloudy
3:36 PM 68.0 °F - 37.4 °F 33% 29.89 in 10.0 mi SSW 5.8 mph - N/A   Scattered Clouds
3:56 PM 68.0 °F - 37.4 °F 33% 29.87 in 10.0 mi SSW 4.6 mph - N/A   Scattered Clouds
4:16 PM 68.0 °F - 37.4 °F 33% 29.86 in 10.0 mi West 8.1 mph - N/A   Scattered Clouds
4:36 PM 68.0 °F - 39.2 °F 35% 29.84 in 10.0 mi SW 5.8 mph - N/A   Scattered Clouds
4:56 PM 68.0 °F - 37.4 °F 33% 29.84 in 10.0 mi West 12.7 mph - N/A   Clear
5:16 PM 64.4 °F - 35.6 °F 34% 29.84 in 10.0 mi WSW 6.9 mph - N/A   Scattered Clouds
5:36 PM 62.6 °F - 37.4 °F 39% 29.85 in 10.0 mi West 11.5 mph 16.1 mph N/A Rain Light Rain
5:56 PM 60.8 °F - 42.8 °F 52% 29.87 in 10.0 mi NNW 5.8 mph - N/A Rain , Thunderstorm Rain
6:16 PM 59.0 °F - 46.4 °F 63% 29.85 in 10.0 mi NNE 4.6 mph - N/A   Scattered Clouds
6:36 PM 57.2 °F - 46.4 °F 67% 29.84 in 10.0 mi East 3.5 mph - N/A   Clear
6:56 PM 55.4 °F - 48.2 °F 77% 29.84 in 10.0 mi Calm Calm - N/A   Scattered Clouds
7:16 PM 57.2 °F - 46.4 °F 67% 29.82 in 10.0 mi Calm Calm - N/A   Scattered Clouds
7:36 PM 57.2 °F - 46.4 °F 67% 29.81 in 10.0 mi SSE 3.5 mph - N/A   Clear
7:56 PM 55.4 °F - 46.4 °F 72% 29.81 in 10.0 mi Calm Calm - N/A   Clear
8:16 PM 55.4 °F - 48.2 °F 77% 29.84 in 10.0 mi NNE 4.6 mph - N/A   Clear
8:36 PM 53.6 °F - 48.2 °F 82% 29.85 in 10.0 mi Calm Calm - N/A Rain Light Rain
8:56 PM 53.6 °F - 50.0 °F 88% 29.83 in 10.0 mi Calm Calm - N/A   Overcast
9:16 PM 53.6 °F - 50.0 °F 88% 29.83 in 10.0 mi Calm Calm - N/A   Overcast
9:36 PM 53.6 °F - 50.0 °F 88% 29.83 in 10.0 mi SW 3.5 mph - N/A   Overcast
9:56 PM 51.8 °F - 50.0 °F 94% 29.83 in 10.0 mi SSW 6.9 mph - N/A Thunderstorm Unknown
10:16 PM 53.6 °F - 48.2 °F 82% 29.82 in 10.0 mi SSW 9.2 mph - N/A   Mostly Cloudy
10:36 PM 51.8 °F - 48.2 °F 88% 29.81 in 10.0 mi SSW 8.1 mph - N/A   Scattered Clouds
10:56 PM 51.8 °F - 46.4 °F 82% 29.79 in 10.0 mi SSW 4.6 mph - N/A   Clear
11:16 PM 50.0 °F - 46.4 °F 87% 29.78 in 10.0 mi SSW 4.6 mph - N/A   Clear
11:36 PM 50.0 °F - 46.4 °F 87% 29.77 in 10.0 mi SW 4.6 mph - N/A   Scattered Clouds
11:56 PM 48.2 °F - 46.4 °F 93% 29.78 in 10.0 mi SW 4.6 mph - N/A   Scattered Clouds